Regional Weather Roundup
Issued by NWS New Orleans/Baton Rouge, LA

Current Version | Previous Version | Text Only | Print | Product List | Glossary On
Versions: 1 2 3 4 5 6 7 8 9 10 11 12 13 14 15 16 17 18 19 20 21 22 23 24 25 26 27 28 29 30 31 32 33 34 35 36 37 38 39 40 41 42 43 44 45 46 47 48 49 50
000
ASUS44 KLIX 290901
RWRLIX
NEW ORLEANS REGIONAL WEATHER ROUNDUP
NATIONAL WEATHER SERVICE NEW ORLEANS LA
400 AM CDT FRI AUG 29 2014

NOTE: "FAIR" INDICATES FEW OR NO CLOUDS BELOW 12,000 FEET WITH NO
      SIGNIFICANT WEATHER AND/OR OBSTRUCTIONS TO VISIBILITY.
      SKY/WX - SKY CONDITION AND SIGNIFICANT WEATHER.
      TMP - AIR TEMPERATURE.     DP    - DEWPOINT TEMPERATURE.
      RH  - RELATIVE HUMIDITY.   PRES  - PRESSURE.
      HI  - HEAT INDEX.          WCI   - WIND CHILL INDEX.

*  THESE STATIONS ARE NOT NWS OR FAA STATIONS AND ARE NOT UNDER
   NWS QUALITY CONTROL.

LAZ038-040-048-061>063-065>067-069-291000-
SOUTHEAST LOUISIANA

CITY           SKY/WX    TMP DP  RH WIND       PRES   REMARKS
N.O. AUDUBON   NOT AVBL
N.O. INTL ARPT PTCLDY    79  73  82 CALM      29.93F
N.O. LAKEFRONT PTCLDY    79  74  84 SE3       29.94F
N.O. DOWNTOWN*   N/A     82  70  65 SE3       29.94F
SLIDELL        CLEAR     72  70  93 CALM      29.94F
BATON ROUGE    PTCLDY    75  73  93 CALM      29.93F
BOOTHVILLE     MOCLDY    82  78  88 E6        29.94S
BELLE CHASSE   PTCLDY    75  71  87 CALM      29.93F
BOGALUSA*        N/A     74  71  89 CALM      29.97S
GALLIANO*      NOT AVBL
NEW ROADS*       N/A     74  74  97 CALM      29.93F
GONZALES*        N/A     74  74 100 CALM      29.92F
HAMMOND*       NOT AVBL
HOUMA*         PTCLDY    76  72  87 NE3       29.92S
PORT FOURCHON* MOSUNNY   84  77  79 SE10G16   29.93S

$$

MSZ070-080>082-291000-
SOUTHERN MISSISSIPPI

CITY           SKY/WX    TMP DP  RH WIND       PRES   REMARKS
MCCOMB         MOCLDY    76  72  87 CALM      29.96F
GULFPORT       CLEAR     76  72  87 CALM      29.95S
BILOXI         CLEAR     76  72  86 E6        29.95S
PASCAGOULA     CLEAR     70  69  97 CALM      29.96S FOG

$$

COASTAL OBSERVATIONS
LAKE AND NEARSHORE STATIONS

STATION/POSITION TIME  TEMP    WIND        PRES    WAVE
                       AIR SEA DIR/SP/G            HT/PER
                 (UTC) (F)     (DEG/KT/KT) (MB)    (FT/S)
PASCAGOULA       0800   83     110/  3/  5 1013.8
WAVELAND YACHT   0800   80      70/  6/  7 1013.5
GRAND ISLE       0800   83 84  120/  7/  8 1013.9
SOUTHWEST PASS   0800   85 89  130/ 12/ 16 1013.9
NEW CANAL        0800   80 84   CALM  /  1 1014.2
SHELL BEACH      0800   82 82  100/  6/  7 1013.7

OFFSHORE STATIONS

STATION/POSITION TIME  TEMP    WIND        PRES    WAVE
                       AIR SEA DIR/SP/G            HT/PER
                 (UTC) (F)     (DEG/KT/KT) (MB)    (FT/S)
64 S DAUPHIN ISL 0819   85 85  120/ 14/ 16 1013.9

$$



USA.gov is the U.S. government's official web portal to all federal, state and local government web resources and services.